Location: Losili
(4.4086°N, 32.7049°E)
Time: 14:24:44
(UTC+00:00)

Cosmos 2237 - Pass Details

Date: 18 September 2019
Orbit: 844 x 858 km, 70.8° (Epoch: 21 October)

Event Time Altitude Azimuth Distance (km) Brightness Sun altitude
Rises 16:53:24 0° 353° (N) 3,416 7.5 -17.3°
Reaches altitude 10° 16:55:55 10° 358° (N) 2,480 6.7 -17.9°
Maximum altitude 17:01:28 53° 74° (ENE) 1,038 4.3 -19.3°
Enters shadow 17:04:48 24° 141° (SE) 1,708 5.4 -20.1°
